Regional Weather Roundup
Issued by NWS

Home | Current Version | Previous Version | Graphics & Text | Print | Product List | Glossary On
Versions: 1 2 3 4 5 6 7 8 9 10 11 12 13 14 15 16 17 18 19 20 21 22 23 24 25 26 27 28 29 30 31 32 33 34 35 36 37 38 39 40 41 42 43 44 45 46 47 48 49 50
000
ASUS43 KOAX 271810
RWRNE

WEATHER ROUNDUP FOR NEBRASKA
NATIONAL WEATHER SERVICE OMAHA NE
1200 PM CST MON FEB 27 2017

NOTES: SATELLITE DATA IS BEING USED TO AUGMENT CLOUD COVER ABOVE
       12000 FEET.
       "FAIR" INDICATES FEW OR NO CLOUDS BELOW 12,000 FEET WITH NO
       SIGNIFICANT WEATHER AND/OR OBSTRUCTIONS TO VISIBILITY.

  * THESE STATIONS DO NOT REPORT WEATHER SUCH AS RAIN...SNOW OR FOG.

NEZ001>004-019>022-054>056-271900-
NEBRASKA PANHANDLE

CITY           SKY/WX    TMP DP  RH WIND       PRES   REMARKS
SCOTTSBLUFF    CLOUDY    26  16  65 E5        29.66F WCI  20
6HR MIN TEMP:   9; 6HR MAX TEMP:  26;

ALLIANCE       CLOUDY    25  17  72 S6        29.65F WCI  18
6HR MIN TEMP:   9; 6HR MAX TEMP:  25;

CHADRON        CLOUDY    33  18  53 CALM      29.65F
6HR MIN TEMP:  20; 6HR MAX TEMP:  33;

KIMBALL        SUNNY     39  21  47 S17       29.64F WCI  30
SIDNEY         CLOUDY    40  19  43 S12       29.67F WCI  33
6HR MIN TEMP:  13; 6HR MAX TEMP:  40;

$$

NEZ057>060-069>072-079>082-271900-
SOUTHWEST NEBRASKA

CITY           SKY/WX    TMP DP  RH WIND       PRES   REMARKS
NORTH PLATTE   SUNNY     45  27  49 S17       29.75F
6HR MIN TEMP:  14; 6HR MAX TEMP:  45;

IMPERIAL       SUNNY     39  24  55 S9        29.72F WCI  33
6HR MIN TEMP:  15; 6HR MAX TEMP:  39;

LEXINGTON      MOSUNNY   44  27  52 SE18      29.79F
MCCOOK         CLOUDY    42  27  55 S12       29.77F
6HR MIN TEMP:  13; 6HR MAX TEMP:  42;

OGALLALA       SUNNY     40  27  60 SE9       29.72F WCI  33
$$

NEZ005>010-023>029-035>040-094-271900-
NORTH CENTRAL NEBRASKA

CITY           SKY/WX    TMP DP  RH WIND       PRES   REMARKS
VALENTINE      CLOUDY    37  25  61 SW22      29.71F WCI  26
6HR MIN TEMP:   5; 6HR MAX TEMP:  37;

AINSWORTH      CLOUDY    38  28  67 S24       29.73F WCI  27
BROKEN BOW     SUNNY     42  27  55 S23G37    29.76F
6HR MIN TEMP:  11; 6HR MAX TEMP:  42;

O`NEILL        CLOUDY    40  26  56 S20       29.80F WCI  31
ORD            SUNNY     42  24  49 S16G25    29.81F
6HR MIN TEMP:  12; 6HR MAX TEMP:  42;

THEDFORD       CLOUDY    40  29  65 S20G26    29.73F WCI  30
$$

NEZ041-046>049-061>064-073>077-083>087-271900-
SOUTH CENTRAL NEBRASKA

CITY           SKY/WX    TMP DP  RH WIND       PRES   REMARKS
GRAND ISLAND   CLOUDY    48  26  42 S14G25    29.86F
6HR MIN TEMP:  23; 6HR MAX TEMP:  48;

AURORA         CLOUDY    47  25  42 S14G24    29.86F
HASTINGS       CLOUDY    49  26  41 S14G25    29.85F
6HR MIN TEMP:  26; 6HR MAX TEMP:  49;

HEBRON         CLOUDY    51  26  38 S17G23    29.89F
HOLDREGE       CLOUDY    47  27  45 S17G23    29.79F
KEARNEY *      CLOUDY    48  27  43 S18       29.83F
YORK           CLOUDY    45  30  57 S15       29.88F
$$

NEZ011>018-030>034-042>045-271900-
NORTHEAST NEBRASKA

CITY           SKY/WX    TMP DP  RH WIND       PRES   REMARKS
NORFOLK        CLOUDY    42  27  55 S15       29.86F
6HR MIN TEMP:  14; 6HR MAX TEMP:  42;

ALBION         SUNNY     43  26  51 S12       29.86F
BLAIR          MOSUNNY   46  30  54 S8        29.93F
FREMONT        CLOUDY    46  29  52 SE14      29.92F
TEKAMAH        PTSUNNY   41  32  70 SE9       29.93F
6HR MIN TEMP:  19; 6HR MAX TEMP:  41;

WAYNE          MOSUNNY   41  28  59 S13       29.89F
$$

NEZ050>053-065>068-078-088>093-271900-
SOUTHEAST NEBRASKA

CITY           SKY/WX    TMP DP  RH WIND       PRES   REMARKS
LINCOLN        CLOUDY    51  24  34 S18G26    29.92F
6HR MIN TEMP:  16; 6HR MAX TEMP:  51;

OMAHA EPPLEY   PTSUNNY   47  29  49 S9        29.94F
6HR MIN TEMP:  23; 6HR MAX TEMP:  47;

BEATRICE       CLOUDY    54  26  33 SE20G28   29.91F
FALLS CITY     MOSUNNY   54  26  34 SE20G26   29.95F
6HR MIN TEMP:  22; 6HR MAX TEMP:  54;

NEBRASKA CITY  CLOUDY    48  25  39 S16       29.96F
PLATTSMOUTH    CLOUDY    48  27  44 SE10      29.94F
$$

NEZ044-045-051>053-067-271900-
OMAHA AREA

CITY           SKY/WX    TMP DP  RH WIND       PRES   REMARKS
OMAHA EPPLEY   PTSUNNY   47  29  49 S9        29.94F
6HR MIN TEMP:  23; 6HR MAX TEMP:  47;

BLAIR          MOSUNNY   46  30  54 S8        29.93F
FREMONT        CLOUDY    46  29  52 SE14      29.92F
MILLARD        CLOUDY    49  31  48 SE12      29.94F
OFFUTT AFB     CLOUDY    48  30  49 S10       29.94F
PLATTSMOUTH    CLOUDY    48  27  44 SE10      29.94F
WAHOO          FAIR      43  31  63 SE12      29.92F
$$




USA.gov is the U.S. government's official web portal to all federal, state and local government web resources and services.